N689ME KDSM-KBZN

Flight info

Callsign N689ME
Flight time 1h 56m
Altitude 43000
Route DANVE LOSST LOSST1
Aircraft C750/M-SBDE3FGHRWXY/S

Departure

Time 2026-04-28 22:15
Airport Des Moines International Airport (KDSM)

Arrival

Time 2026-04-29 00:12
Airport Bozeman Yellowstone International Airport (KBZN)
Time Latitude Longitude Altitude Speed Heading
2026-04-28 22:15 41.60226 -93.81557 10264 ft 266 kts 283°
2026-04-28 22:15 41.60679 -93.84065 10711 ft 288 kts 281°
2026-04-28 22:15 41.61178 -93.86779 10994 ft 314 kts 282°
2026-04-28 22:16 41.61749 -93.89698 11493 ft 329 kts 283°
2026-04-28 22:16 41.62328 -93.92641 12463 ft 328 kts 282°
2026-04-28 22:16 41.62895 -93.95618 13357 ft 332 kts 282°
2026-04-28 22:16 41.63464 -93.98629 14205 ft 336 kts 282°
2026-04-28 22:17 41.64045 -94.01666 14946 ft 339 kts 282°
2026-04-28 22:17 41.64633 -94.04730 15671 ft 342 kts 282°
2026-04-28 22:17 41.65222 -94.07826 16416 ft 345 kts 282°
2026-04-28 22:17 41.65810 -94.10925 17174 ft 349 kts 282°
2026-04-28 22:18 41.66410 -94.14083 17963 ft 352 kts 282°
2026-04-28 22:18 41.67015 -94.17276 18706 ft 356 kts 282°
2026-04-28 22:18 41.67627 -94.20503 19430 ft 359 kts 281°
2026-04-28 22:18 41.68240 -94.23754 20199 ft 362 kts 281°
2026-04-28 22:19 41.68860 -94.27040 20920 ft 366 kts 280°
2026-04-28 22:19 41.69488 -94.30373 21637 ft 371 kts 280°
2026-04-28 22:19 41.70117 -94.33714 22559 ft 370 kts 279°
2026-04-28 22:19 41.70746 -94.37072 23245 ft 375 kts 278°
2026-04-28 22:20 41.71375 -94.40440 23879 ft 379 kts 278°
2026-04-28 22:20 41.72024 -94.43912 24518 ft 381 kts 278°
2026-04-28 22:20 41.72663 -94.47327 25154 ft 383 kts 278°
2026-04-28 22:20 41.73310 -94.50801 25787 ft 386 kts 278°
2026-04-28 22:21 41.73968 -94.54344 26425 ft 388 kts 278°
2026-04-28 22:21 41.74613 -94.57818 27051 ft 391 kts 278°
2026-04-28 22:21 41.75270 -94.61366 27657 ft 394 kts 278°
2026-04-28 22:21 41.75931 -94.64940 28294 ft 397 kts 278°
2026-04-28 22:22 41.76596 -94.68540 28922 ft 400 kts 279°
2026-04-28 22:22 41.77264 -94.72167 29511 ft 402 kts 279°
2026-04-28 22:22 41.77935 -94.75821 30112 ft 405 kts 279°
2026-04-28 22:22 41.78611 -94.79502 30608 ft 408 kts 279°
2026-04-28 22:23 41.79292 -94.83218 31098 ft 411 kts 279°
2026-04-28 22:23 41.79972 -94.86927 31818 ft 408 kts 279°
2026-04-28 22:23 41.80644 -94.90603 32555 ft 405 kts 278°
2026-04-28 22:23 41.81301 -94.94219 33267 ft 403 kts 278°
2026-04-28 22:24 41.81961 -94.97859 33965 ft 402 kts 279°
2026-04-28 22:24 41.82621 -95.01498 34530 ft 401 kts 279°
2026-04-28 22:24 41.83279 -95.05136 35052 ft 402 kts 279°
2026-04-28 22:24 41.83938 -95.08782 35562 ft 403 kts 279°
2026-04-28 22:25 41.84597 -95.12436 36077 ft 403 kts 279°
2026-04-28 22:25 41.85256 -95.16097 36595 ft 404 kts 279°
2026-04-28 22:25 41.85915 -95.19765 37116 ft 405 kts 279°
2026-04-28 22:25 41.86572 -95.23434 37648 ft 405 kts 279°
2026-04-28 22:26 41.87231 -95.27118 38168 ft 407 kts 279°
2026-04-28 22:26 41.87893 -95.30823 38665 ft 409 kts 279°
2026-04-28 22:26 41.88556 -95.34545 39146 ft 409 kts 280°
2026-04-28 22:26 41.89216 -95.38260 39605 ft 409 kts 280°
2026-04-28 22:27 41.89877 -95.41979 40041 ft 410 kts 280°
2026-04-28 22:27 41.90536 -95.45703 40488 ft 410 kts 280°
2026-04-28 22:27 41.91195 -95.49433 40938 ft 411 kts 280°
2026-04-28 22:27 41.91854 -95.53169 41390 ft 411 kts 280°
2026-04-28 22:28 41.92512 -95.56910 41849 ft 412 kts 280°
2026-04-28 22:28 41.93170 -95.60655 42289 ft 412 kts 280°
2026-04-28 22:28 41.93828 -95.64404 42741 ft 413 kts 280°
2026-04-28 22:28 41.94484 -95.68160 43114 ft 415 kts 280°
2026-04-28 22:29 41.95150 -95.71985 43105 ft 426 kts 280°
2026-04-28 22:29 41.96521 -95.79862 43104 ft 445 kts 281°
2026-04-28 22:30 41.97953 -95.88122 43103 ft 462 kts 281°
2026-04-28 22:30 41.99432 -95.96707 43104 ft 479 kts 281°
2026-04-28 22:31 42.00952 -96.05557 43093 ft 493 kts 281°
2026-04-28 22:31 42.01716 -96.10015 43098 ft 481 kts 281°
2026-04-28 22:31 42.02457 -96.14344 43089 ft 469 kts 281°
2026-04-28 22:31 42.03176 -96.18580 43112 ft 458 kts 280°
2026-04-28 22:32 42.03873 -96.22705 43085 ft 458 kts 280°
2026-04-28 22:32 42.05299 -96.31144 43093 ft 464 kts 280°
2026-04-28 22:33 42.06727 -96.39620 43106 ft 465 kts 280°
2026-04-28 22:33 42.08147 -96.48105 43113 ft 465 kts 280°
2026-04-28 22:34 42.09564 -96.56602 43117 ft 465 kts 280°
2026-04-28 22:34 42.10973 -96.65101 43116 ft 465 kts 280°
2026-04-28 22:35 42.12377 -96.73604 43125 ft 465 kts 280°
2026-04-28 22:35 42.13778 -96.82134 43124 ft 465 kts 280°
2026-04-28 22:36 42.15169 -96.90645 43124 ft 465 kts 280°
2026-04-28 22:36 42.16543 -96.99097 43131 ft 465 kts 280°
2026-04-28 22:37 42.17921 -97.07610 43129 ft 465 kts 280°
2026-04-28 22:37 42.19294 -97.16147 43096 ft 468 kts 280°
2026-04-28 22:38 42.20667 -97.24710 43111 ft 467 kts 280°
2026-04-28 22:38 42.22032 -97.33279 43129 ft 467 kts 280°
2026-04-28 22:39 42.23392 -97.41853 43143 ft 467 kts 280°
2026-04-28 22:39 42.24734 -97.50364 43144 ft 467 kts 280°
2026-04-28 22:40 42.26080 -97.58935 43149 ft 467 kts 280°
2026-04-28 22:40 42.27417 -97.67504 43151 ft 466 kts 280°
2026-04-28 22:41 42.28750 -97.76084 43160 ft 466 kts 280°
2026-04-28 22:41 42.30076 -97.84669 43153 ft 466 kts 280°
2026-04-28 22:42 42.31395 -97.93247 43159 ft 466 kts 279°
2026-04-28 22:42 42.32709 -98.01841 43161 ft 467 kts 280°
2026-04-28 22:43 42.34009 -98.10399 43168 ft 469 kts 280°
2026-04-28 22:43 42.35317 -98.19038 43168 ft 468 kts 279°
2026-04-28 22:44 42.36615 -98.27670 43170 ft 469 kts 279°
2026-04-28 22:44 42.37910 -98.36321 43172 ft 469 kts 279°
2026-04-28 22:45 42.39196 -98.44965 43155 ft 469 kts 279°
2026-04-28 22:45 42.40469 -98.53566 43147 ft 469 kts 279°
2026-04-28 22:46 42.41743 -98.62217 43143 ft 469 kts 279°
2026-04-28 22:46 42.43011 -98.70881 43144 ft 469 kts 279°
2026-04-28 22:47 42.44271 -98.79537 43139 ft 468 kts 279°
2026-04-28 22:47 42.45525 -98.88196 43149 ft 469 kts 279°
2026-04-28 22:48 42.46772 -98.96859 43157 ft 469 kts 279°
2026-04-28 22:48 42.48014 -99.05534 43163 ft 469 kts 279°
2026-04-28 22:49 42.49239 -99.14143 43163 ft 468 kts 279°
2026-04-28 22:49 42.50467 -99.22819 43167 ft 468 kts 279°
2026-04-28 22:50 42.51689 -99.31499 43167 ft 468 kts 279°
2026-04-28 22:50 42.52904 -99.40181 43170 ft 468 kts 279°
2026-04-28 22:51 42.53909 -99.47406 43167 ft 469 kts 279°
2026-04-28 22:51 42.55312 -99.57546 43159 ft 470 kts 279°
2026-04-28 22:52 42.56310 -99.64802 43151 ft 470 kts 279°
2026-04-28 22:52 42.57503 -99.73520 43140 ft 470 kts 279°
2026-04-28 22:53 42.58689 -99.82241 43135 ft 470 kts 279°
2026-04-28 22:53 42.59875 -99.91014 43126 ft 475 kts 279°
2026-04-28 22:54 42.61059 -99.99818 43127 ft 473 kts 279°
2026-04-28 22:54 42.62233 -100.08618 43128 ft 474 kts 279°
2026-04-28 22:55 42.63404 -100.17433 43138 ft 474 kts 279°
2026-04-28 22:55 42.64568 -100.26256 43150 ft 476 kts 279°
2026-04-28 22:56 42.65719 -100.35035 43173 ft 475 kts 279°
2026-04-28 22:56 42.66871 -100.43880 43172 ft 475 kts 279°
2026-04-28 22:57 42.68018 -100.52735 43172 ft 475 kts 279°
2026-04-28 22:57 42.69155 -100.61575 43167 ft 474 kts 279°
2026-04-28 22:58 42.70282 -100.70384 43167 ft 473 kts 279°
2026-04-28 22:58 42.71401 -100.79198 43166 ft 473 kts 279°
2026-04-28 22:59 42.72518 -100.88043 43170 ft 475 kts 279°
2026-04-28 22:59 42.73620 -100.96830 43171 ft 474 kts 279°
2026-04-28 23:00 42.74730 -101.05739 43167 ft 474 kts 279°
2026-04-28 23:00 42.75819 -101.14535 43169 ft 474 kts 279°
2026-04-28 23:01 42.76906 -101.23375 43165 ft 474 kts 278°
2026-04-28 23:01 42.77990 -101.32247 43165 ft 474 kts 278°
2026-04-28 23:02 42.79060 -101.41064 43161 ft 471 kts 278°
2026-04-28 23:02 42.80122 -101.49878 43162 ft 472 kts 278°
2026-04-28 23:03 42.81180 -101.58712 43162 ft 472 kts 278°
2026-04-28 23:03 42.82223 -101.67482 43161 ft 472 kts 278°
2026-04-28 23:04 42.83267 -101.76329 43154 ft 475 kts 278°
2026-04-28 23:04 42.84828 -101.89652 43129 ft 474 kts 278°
2026-04-28 23:05 42.85857 -101.98523 43111 ft 474 kts 278°
2026-04-28 23:05 42.87010 -102.07312 43079 ft 475 kts 284°
2026-04-28 23:06 42.89366 -102.15729 43163 ft 477 kts 291°
2026-04-28 23:06 42.91894 -102.24099 43135 ft 476 kts 290°
2026-04-28 23:07 42.94428 -102.32463 43120 ft 476 kts 290°
2026-04-28 23:07 42.96949 -102.40827 43102 ft 479 kts 290°
2026-04-28 23:08 42.99469 -102.49216 43103 ft 477 kts 290°
2026-04-28 23:08 43.01986 -102.57613 43095 ft 477 kts 290°
2026-04-28 23:09 43.04478 -102.65966 43100 ft 477 kts 290°
2026-04-28 23:09 43.06983 -102.74382 43121 ft 477 kts 290°
2026-04-28 23:10 43.09483 -102.82810 43122 ft 477 kts 290°
2026-04-28 23:10 43.11979 -102.91254 43148 ft 481 kts 290°
2026-04-28 23:11 43.14460 -102.99673 43159 ft 480 kts 290°
2026-04-28 23:11 43.16952 -103.08158 43153 ft 480 kts 290°
2026-04-28 23:12 43.19437 -103.16648 43150 ft 482 kts 290°
2026-04-28 23:12 43.21930 -103.25196 43146 ft 482 kts 290°
2026-04-28 23:13 43.24414 -103.33738 43143 ft 482 kts 290°
2026-04-28 23:13 43.26891 -103.42287 43151 ft 482 kts 290°
2026-04-28 23:14 43.29347 -103.50792 43141 ft 482 kts 290°
2026-04-28 23:14 43.31808 -103.59342 43148 ft 482 kts 290°
2026-04-28 23:15 43.34267 -103.67914 43141 ft 482 kts 290°
2026-04-28 23:15 43.36716 -103.76484 43140 ft 482 kts 290°
2026-04-28 23:16 43.39162 -103.85069 43104 ft 481 kts 290°
2026-04-28 23:16 43.41587 -103.93611 43095 ft 479 kts 290°
2026-04-28 23:17 43.43989 -104.02102 43081 ft 480 kts 290°
2026-04-28 23:17 43.46406 -104.10673 43072 ft 480 kts 290°
2026-04-28 23:18 43.48814 -104.19244 43074 ft 480 kts 290°
2026-04-28 23:18 43.51216 -104.27819 43057 ft 478 kts 290°
2026-04-28 23:19 43.53601 -104.36369 43061 ft 478 kts 290°
2026-04-28 23:19 43.55981 -104.44927 43059 ft 478 kts 290°
2026-04-28 23:20 43.58356 -104.53495 43061 ft 478 kts 290°
2026-04-28 23:20 43.60724 -104.62071 43061 ft 478 kts 289°
2026-04-28 23:21 43.63072 -104.70604 43065 ft 478 kts 289°
2026-04-28 23:21 43.65430 -104.79201 43077 ft 478 kts 289°
2026-04-28 23:22 43.67784 -104.87815 43064 ft 479 kts 289°
2026-04-28 23:22 43.70130 -104.96432 43063 ft 479 kts 289°
2026-04-28 23:23 43.72468 -105.05048 43061 ft 479 kts 289°
2026-04-28 23:23 43.74803 -105.13686 43062 ft 479 kts 289°
2026-04-28 23:24 43.77114 -105.22262 43066 ft 479 kts 289°
2026-04-28 23:24 43.79434 -105.30904 43062 ft 479 kts 289°
2026-04-28 23:25 43.81748 -105.39555 43061 ft 479 kts 289°
2026-04-28 23:25 43.84056 -105.48213 43062 ft 479 kts 289°
2026-04-28 23:26 43.86356 -105.56877 43062 ft 479 kts 289°
2026-04-28 23:26 43.88655 -105.65562 43057 ft 479 kts 289°
2026-04-28 23:27 43.90944 -105.74245 43074 ft 481 kts 289°
2026-04-28 23:27 43.93232 -105.82953 43078 ft 480 kts 289°
2026-04-28 23:28 43.95512 -105.91666 43078 ft 480 kts 288°
2026-04-28 23:28 43.97771 -106.00328 43078 ft 480 kts 288°
2026-04-28 23:29 44.00038 -106.09054 43074 ft 481 kts 288°
2026-04-28 23:29 44.02301 -106.17798 43071 ft 481 kts 288°
2026-04-28 23:30 44.04562 -106.26566 43078 ft 482 kts 288°
2026-04-28 23:30 44.06813 -106.35325 43080 ft 481 kts 288°
2026-04-28 23:31 44.09058 -106.44098 43080 ft 481 kts 288°
2026-04-28 23:31 44.11298 -106.52880 43081 ft 481 kts 288°
2026-04-28 23:32 44.12411 -106.57256 42924 ft 471 kts 288°
2026-04-28 23:32 44.13480 -106.61462 42645 ft 451 kts 288°
2026-04-28 23:32 44.14502 -106.65492 42358 ft 433 kts 288°
2026-04-28 23:32 44.15487 -106.69391 42095 ft 420 kts 288°
2026-04-28 23:33 44.16446 -106.73192 41826 ft 415 kts 288°
2026-04-28 23:33 44.17409 -106.77015 41571 ft 420 kts 288°
2026-04-28 23:33 44.18372 -106.80842 41334 ft 427 kts 288°
2026-04-28 23:33 44.19357 -106.84760 41107 ft 429 kts 288°
2026-04-28 23:34 44.20343 -106.88689 40900 ft 430 kts 288°
2026-04-28 23:34 44.21327 -106.92620 40674 ft 429 kts 288°
2026-04-28 23:34 44.22308 -106.96548 40444 ft 429 kts 288°
2026-04-28 23:34 44.23289 -107.00475 40209 ft 429 kts 288°
2026-04-28 23:35 44.24268 -107.04403 39984 ft 429 kts 288°
2026-04-28 23:35 44.25249 -107.08344 39769 ft 430 kts 288°
2026-04-28 23:35 44.26227 -107.12288 39549 ft 431 kts 288°
2026-04-28 23:35 44.27205 -107.16235 39331 ft 430 kts 288°
2026-04-28 23:36 44.28181 -107.20177 39119 ft 430 kts 288°
2026-04-28 23:36 44.29155 -107.24117 38902 ft 429 kts 288°
2026-04-28 23:36 44.30125 -107.28056 38662 ft 429 kts 288°
2026-04-28 23:36 44.31084 -107.31953 38392 ft 429 kts 288°
2026-04-28 23:37 44.32063 -107.35932 38117 ft 428 kts 288°
2026-04-28 23:37 44.33030 -107.39871 37837 ft 427 kts 288°
2026-04-28 23:37 44.33975 -107.43734 37597 ft 427 kts 288°
2026-04-28 23:37 44.34926 -107.47627 36810 ft 419 kts 288°
2026-04-28 23:38 44.35870 -107.51493 35399 ft 422 kts 288°
2026-04-28 23:38 44.36813 -107.55363 34162 ft 419 kts 288°
2026-04-28 23:38 44.37749 -107.59213 32599 ft 416 kts 288°
2026-04-28 23:38 44.38682 -107.63057 30800 ft 419 kts 289°
2026-04-28 23:39 44.39620 -107.66926 28999 ft 421 kts 289°
2026-04-28 23:39 44.40549 -107.70762 27598 ft 410 kts 289°
2026-04-28 23:39 44.41452 -107.74505 26187 ft 402 kts 289°
2026-04-28 23:39 44.42339 -107.78183 24836 ft 395 kts 289°
2026-04-28 23:40 44.43210 -107.81799 23482 ft 389 kts 289°
2026-04-28 23:40 44.44068 -107.85363 22056 ft 381 kts 289°
2026-04-28 23:40 44.44903 -107.88840 20730 ft 373 kts 289°
2026-04-28 23:40 44.45718 -107.92245 19440 ft 365 kts 288°
2026-04-28 23:41 44.46510 -107.95549 18222 ft 358 kts 288°
2026-04-28 23:41 44.47292 -107.98823 16875 ft 351 kts 288°
2026-04-28 23:41 44.48058 -108.02040 15691 ft 345 kts 288°
2026-04-28 23:41 44.48797 -108.05140 15069 ft 324 kts 288°
2026-04-28 23:42 44.49471 -108.07971 15044 ft 290 kts 288°
2026-04-28 23:42 44.50090 -108.10574 15042 ft 280 kts 288°
2026-04-28 23:42 44.50713 -108.13197 15042 ft 286 kts 288°
2026-04-28 23:42 44.51340 -108.15844 15052 ft 287 kts 288°
2026-04-28 23:43 44.51758 -108.17608 15056 ft 288 kts 288°
2026-04-28 23:43 44.52390 -108.20281 15058 ft 288 kts 288°
2026-04-28 23:43 44.53021 -108.22951 15063 ft 289 kts 288°
2026-04-28 23:43 44.53653 -108.25628 15066 ft 289 kts 288°
2026-04-28 23:44 44.54283 -108.28300 15063 ft 289 kts 288°
2026-04-28 23:44 44.54911 -108.30965 15066 ft 289 kts 288°
2026-04-28 23:44 44.55541 -108.33642 15068 ft 289 kts 288°
2026-04-28 23:44 44.56169 -108.36315 15070 ft 289 kts 288°
2026-04-28 23:45 44.56798 -108.38998 15067 ft 291 kts 288°
2026-04-28 23:45 44.57429 -108.41694 15071 ft 291 kts 288°
2026-04-28 23:45 44.58060 -108.44385 15076 ft 291 kts 288°
2026-04-28 23:45 44.58690 -108.47081 15079 ft 291 kts 288°
2026-04-28 23:46 44.59320 -108.49777 15077 ft 291 kts 287°
2026-04-28 23:46 44.59949 -108.52477 15079 ft 291 kts 287°
2026-04-28 23:46 44.60576 -108.55170 15080 ft 290 kts 287°
2026-04-28 23:46 44.61203 -108.57864 15086 ft 290 kts 287°
2026-04-28 23:47 44.61822 -108.60528 15077 ft 290 kts 287°
2026-04-28 23:47 44.62455 -108.63253 15085 ft 290 kts 287°
2026-04-28 23:47 44.63074 -108.65927 15079 ft 294 kts 288°
2026-04-28 23:47 44.63706 -108.68655 15093 ft 293 kts 288°
2026-04-28 23:48 44.64336 -108.71380 15095 ft 293 kts 288°
2026-04-28 23:48 44.64966 -108.74105 15095 ft 293 kts 288°
2026-04-28 23:48 44.65595 -108.76836 15076 ft 293 kts 288°
2026-04-28 23:48 44.66223 -108.79562 15076 ft 293 kts 288°
2026-04-28 23:49 44.66850 -108.82287 15076 ft 293 kts 288°
2026-04-28 23:49 44.67477 -108.85011 15075 ft 293 kts 288°
2026-04-28 23:49 44.68102 -108.87737 15094 ft 293 kts 287°
2026-04-28 23:49 44.68740 -108.90521 15100 ft 311 kts 287°
2026-04-28 23:50 44.69435 -108.93562 15102 ft 341 kts 287°
2026-04-28 23:50 44.70188 -108.96856 15102 ft 367 kts 287°
2026-04-28 23:50 44.70983 -109.00336 15105 ft 387 kts 287°
2026-04-28 23:50 44.71811 -109.03973 15106 ft 393 kts 288°
2026-04-28 23:51 44.72647 -109.07645 15105 ft 395 kts 287°
2026-04-28 23:51 44.73485 -109.11335 15107 ft 396 kts 287°
2026-04-28 23:51 44.74324 -109.15038 15103 ft 399 kts 287°
2026-04-28 23:51 44.75170 -109.18776 15106 ft 400 kts 287°
2026-04-28 23:52 44.76013 -109.22507 15106 ft 400 kts 287°
2026-04-28 23:52 44.76855 -109.26241 15109 ft 401 kts 287°
2026-04-28 23:52 44.77694 -109.29969 15113 ft 400 kts 287°
2026-04-28 23:52 44.78531 -109.33697 15119 ft 397 kts 287°
2026-04-28 23:53 44.79365 -109.37417 15116 ft 398 kts 287°
2026-04-28 23:53 44.80200 -109.41143 15127 ft 399 kts 287°
2026-04-28 23:53 44.81033 -109.44862 15132 ft 398 kts 287°
2026-04-28 23:53 44.81863 -109.48585 15140 ft 398 kts 287°
2026-04-28 23:54 44.82694 -109.52320 15156 ft 398 kts 287°
2026-04-28 23:54 44.83511 -109.55999 15152 ft 399 kts 287°
2026-04-28 23:54 44.84339 -109.59726 15157 ft 398 kts 287°
2026-04-28 23:54 44.85166 -109.63454 15160 ft 399 kts 287°
2026-04-28 23:55 44.85996 -109.67202 15167 ft 402 kts 287°
2026-04-28 23:55 44.86827 -109.70966 15166 ft 403 kts 287°
2026-04-28 23:55 44.87654 -109.74718 15168 ft 401 kts 287°
2026-04-28 23:55 44.88479 -109.78472 15164 ft 400 kts 287°
2026-04-28 23:56 44.89304 -109.82227 15157 ft 398 kts 287°
2026-04-28 23:56 44.90123 -109.85954 15158 ft 395 kts 287°
2026-04-28 23:56 44.90935 -109.89671 15151 ft 396 kts 287°
2026-04-28 23:56 44.91744 -109.93378 15161 ft 395 kts 287°
2026-04-28 23:57 44.92549 -109.97087 15154 ft 395 kts 287°
2026-04-28 23:57 44.93350 -110.00746 15162 ft 396 kts 287°
2026-04-28 23:57 44.94163 -110.04463 15169 ft 399 kts 287°
2026-04-28 23:57 44.94970 -110.08202 15162 ft 395 kts 287°
2026-04-28 23:58 44.95774 -110.11928 15153 ft 396 kts 287°
2026-04-28 23:58 44.96580 -110.15649 15148 ft 397 kts 287°
2026-04-28 23:58 44.97383 -110.19359 15156 ft 395 kts 287°
2026-04-28 23:58 44.98183 -110.23077 15152 ft 395 kts 287°
2026-04-28 23:59 44.98957 -110.26802 15351 ft 395 kts 286°
2026-04-28 23:59 44.99709 -110.30559 15723 ft 399 kts 287°
2026-04-28 23:59 45.00799 -110.34187 16100 ft 405 kts 297°
2026-04-28 23:59 45.02364 -110.37515 16247 ft 409 kts 307°
2026-04-29 00:00 45.04513 -110.40133 16032 ft 409 kts 326°
2026-04-29 00:00 45.07030 -110.42039 15910 ft 409 kts 332°
2026-04-29 00:00 45.09572 -110.43744 15799 ft 409 kts 333°
2026-04-29 00:00 45.12104 -110.45580 15681 ft 406 kts 329°
2026-04-29 00:01 45.14465 -110.47771 15544 ft 406 kts 322°
2026-04-29 00:01 45.16670 -110.50264 15413 ft 403 kts 319°
2026-04-29 00:01 45.18830 -110.52808 15291 ft 406 kts 320°
2026-04-29 00:01 45.21102 -110.55166 15172 ft 404 kts 324°
2026-04-29 00:02 45.23428 -110.57418 15136 ft 404 kts 323°
2026-04-29 00:02 45.25702 -110.59766 15159 ft 402 kts 322°
2026-04-29 00:02 45.27928 -110.62176 15146 ft 403 kts 321°
2026-04-29 00:02 45.30191 -110.64586 15139 ft 409 kts 322°
2026-04-29 00:03 45.32467 -110.66973 15121 ft 407 kts 322°
2026-04-29 00:03 45.34740 -110.69298 15125 ft 408 kts 323°
2026-04-29 00:03 45.37029 -110.71680 15134 ft 407 kts 322°
2026-04-29 00:03 45.39295 -110.74099 15124 ft 408 kts 321°
2026-04-29 00:04 45.41566 -110.76508 15144 ft 404 kts 322°
2026-04-29 00:04 45.43639 -110.79210 15228 ft 403 kts 314°
2026-04-29 00:04 45.45712 -110.81931 15353 ft 411 kts 316°
2026-04-29 00:04 45.47796 -110.84588 14960 ft 383 kts 317°
2026-04-29 00:05 45.49747 -110.86917 14143 ft 353 kts 318°
2026-04-29 00:05 45.51632 -110.89128 12541 ft 351 kts 317°
2026-04-29 00:05 45.53541 -110.91106 12208 ft 321 kts 330°
2026-04-29 00:05 45.55541 -110.92380 11453 ft 315 kts 334°
2026-04-29 00:06 45.57571 -110.93307 11095 ft 295 kts 349°
2026-04-29 00:06 45.59493 -110.93498 11252 ft 259 kts 351°
2026-04-29 00:06 45.61181 -110.94040 11123 ft 246 kts 339°
2026-04-29 00:06 45.62742 -110.95026 10878 ft 245 kts 329°
2026-04-29 00:07 45.64158 -110.96201 10452 ft 217 kts 325°
2026-04-29 00:07 45.65286 -110.97283 9974 ft 184 kts 319°
2026-04-29 00:07 45.66267 -110.98391 9423 ft 169 kts 315°
2026-04-29 00:07 45.67066 -110.99486 9107 ft 155 kts 309°
2026-04-29 00:08 45.67755 -111.00622 8800 ft 148 kts 306°
2026-04-29 00:08 45.68430 -111.01716 8527 ft 144 kts 308°
2026-04-29 00:08 45.69101 -111.02734 8332 ft 136 kts 308°
2026-04-29 00:08 45.69726 -111.03712 8169 ft 130 kts 308°
2026-04-29 00:09 45.70329 -111.04670 7959 ft 127 kts 306°
2026-04-29 00:09 45.70910 -111.05614 7764 ft 128 kts 309°
2026-04-29 00:09 45.71508 -111.06579 7489 ft 131 kts 304°
2026-04-29 00:09 45.72070 -111.07615 7232 ft 133 kts 306°
2026-04-29 00:10 45.72696 -111.08610 6972 ft 133 kts 308°
2026-04-29 00:10 45.73348 -111.09492 6684 ft 134 kts 317°
2026-04-29 00:10 45.74049 -111.10349 6237 ft 129 kts 322°
2026-04-29 00:10 45.74877 -111.10943 5751 ft 138 kts 332°
2026-04-29 00:11 45.75673 -111.11702 5362 ft 138 kts 316°
2026-04-29 00:11 45.76298 -111.12662 4990 ft 121 kts 312°
2026-04-29 00:11 45.77425 -111.14217 4454 ft 96 kts 314°
2026-04-29 00:12 45.77833 -111.14786 4465 ft 45 kts 316°
2026-04-29 00:12 45.77925 -111.14900 4468 ft 9 kts 312°